{"data":{"norad_id":41019,"epoch":"2026-09-19T12:11:21.299424Z","epoch_age_seconds":103836,"freshness":"FRESH","line1":"1 41019U 15062A   26262.50788541 -.00000072  00000+0  00000+0 0  9993","line2":"2 41019  57.0198  27.1858 0116217 231.1367 127.8323  2.00567094 79723","mean_motion":2.00567094,"eccentricity":0.0116217,"inclination_deg":57.0198,"raan_deg":27.1858,"arg_perigee_deg":231.1367,"mean_anomaly_deg":127.8323,"bstar":0,"rev_number":7972,"period_min":717.96423395355,"perigee_km":19873.229891477,"apogee_km":20490.575518354,"semimajor_km":26560.039704915,"source":"CELESTRAK","updated_at":"2026-09-20T09:00:46.118925Z"}}